Retour au catalogue

CZ-4C DEB

ActifSSO
NORAD 38663·DEBRIS·🇨🇳 China

Lancé May 29, 2012 depuis Taiyuan Satellite Launch Center

Loading…

Prochains Passages (prochaines 24 heures)

TLE

FraisSource: Space-Track

Époque: Sep 14, 2026, 12:39 UTC

1 38663U 12029E   26257.52734036 -.00000117  00000-0 -20677-3 0  9998
2 38663 100.2201 190.2599 0137235 282.6793  75.9005 13.08869035621612

Suivez CZ-4C DEB en temps réel avec AllMySat

Download on the App Store